| time (UTC) | temp C | wind direction | speed KPH | gust KPH | rain 1hr cm | rain 24hr cm | rain mn cm | humidity % | barometer mb |
| 20260505234522 | 28 | 25 | 3.2 | 16.1 | 0.00 | 0.00 | 0.00 | 36 | 1006.3 |
| 20260505233018 | 28 | 6 | 1.6 | 9.7 | 0.00 | 0.00 | 0.00 | 33 | 1005.9 |
| 20260505231522 | 28 | 349 | 1.6 | 8.0 | 0.00 | 0.00 | 0.00 | 31 | 1005.7 |
| 20260505230030 | 29 | 326 | 6.4 | 14.5 | 0.00 | 0.00 | 0.00 | 31 | 1006.1 |
| 20260505224527 | 30 | 328 | 3.2 | 12.9 | 0.00 | 0.00 | 0.00 | 31 | 1006.2 |
| 20260505223015 | 30 | 84 | 3.2 | 8.0 | 0.00 | 0.00 | 0.00 | 30 | 1005.9 |
| 20260505221520 | 31 | 352 | 1.6 | 8.0 | 0.00 | 0.00 | 0.00 | 30 | 1005.6 |
| 20260505220036 | 31 | 313 | 3.2 | 12.9 | 0.00 | 0.00 | 0.00 | 29 | 1005.1 |
| 20260505214532 | 31 | 59 | 1.6 | 11.3 | 0.00 | 0.00 | 0.00 | 28 | 1005.3 |
| 20260505213028 | 32 | 356 | 3.2 | 9.7 | 0.00 | 0.00 | 0.00 | 26 | 1005.3 |
| 20260505211518 | 34 | 285 | 3.2 | 11.3 | 0.00 | 0.00 | 0.00 | 19 | 1005.3 |
| 20260505210019 | 33 | 264 | 1.6 | 11.3 | 0.00 | 0.00 | 0.00 | 20 | 1005.5 |
| 20260505204526 | 34 | 260 | 1.6 | 9.7 | 0.00 | 0.00 | 0.00 | 18 | 1005.5 |
| 20260505203024 | 35 | 255 | 1.6 | 11.3 | 0.00 | 0.00 | 0.00 | 19 | 1005.6 |
| 20260505201526 | 35 | 223 | 3.2 | 12.9 | 0.00 | 0.00 | 0.00 | 22 | 1005.5 |
| 20260505200026 | 33 | 288 | 3.2 | 8.0 | 0.00 | 0.00 | 0.00 | 23 | 1006.0 |
| 20260505194533 | 33 | 283 | 6.4 | 14.5 | 0.00 | 0.00 | 0.00 | 22 | 1006.2 |
| 20260505193037 | 33 | 288 | 4.8 | 12.9 | 0.00 | 0.00 | 0.00 | 23 | 1006.3 |
| 20260505191537 | 33 | 245 | 4.8 | 11.3 | 0.00 | 0.00 | 0.00 | 26 | 1006.3 |
| 20260505190014 | 32 | 248 | 3.2 | 12.9 | 0.00 | 0.00 | 0.00 | 29 | 1006.6 |
| 20260505184529 | 32 | 290 | 4.8 | 19.3 | 0.00 | 0.00 | 0.00 | 28 | 1006.6 |
| 20260505183027 | 32 | 296 | 3.2 | 8.0 | 0.00 | 0.00 | 0.00 | 27 | 1006.9 |
| 20260505181505 | 32 | 176 | 1.6 | 6.4 | 0.00 | 0.00 | 0.00 | 35 | 1007.1 |
| 20260505180012 | 31 | 241 | 1.6 | 6.4 | 0.00 | 0.00 | 0.00 | 38 | 1007.3 |
| 20260505174529 | 31 | 257 | 1.6 | 9.7 | 0.00 | 0.00 | 0.00 | 40 | 1007.3 |
| 20260505173021 | 30 | 266 | 1.6 | 6.4 | 0.00 | 0.00 | 0.00 | 41 | 1007.2 |
| 20260505171533 | 30 | 242 | 1.6 | 3.2 | 0.00 | 0.00 | 0.00 | 46 | 1007.4 |
| 20260505170019 | 29 | 233 | 1.6 | 6.4 | 0.00 | 0.00 | 0.00 | 48 | 1007.4 |
| 20260505164527 | 28 | 251 | 1.6 | 6.4 | 0.00 | 0.00 | 0.00 | 49 | 1007.5 |
| 20260505163020 | 28 | 281 | 1.6 | 3.2 | 0.00 | 0.00 | 0.00 | 50 | 1007.4 |
| 20260505161528 | 27 | 212 | 3.2 | 6.4 | 0.00 | 0.00 | 0.00 | 54 | 1007.5 |
| 20260505153015 | 26 | 221 | 1.6 | 8.0 | 0.00 | 0.00 | 0.00 | 59 | 1007.3 |
| 20260505151517 | 25 | 245 | 3.2 | 8.0 | 0.00 | 0.00 | 0.00 | 57 | 1007.3 |
| 20260505124507 | 20 | 147 | 0.0 | 4.8 | 0.00 | 0.00 | 0.00 | 78 | 1005.8 |
| 20260505123007 | 20 | 233 | 0.0 | 3.2 | 0.00 | 0.00 | 0.00 | 79 | 1005.8 |
| 20260505121526 | 20 | 248 | 1.6 | 3.2 | 0.00 | 0.00 | 0.00 | 80 | 1005.6 |
| 20260505120030 | 19 | 236 | 0.0 | 4.8 | 0.00 | 0.00 | 0.00 | 81 | 1005.4 |
| 20260505114520 | 19 | 161 | 0.0 | 0.0 | 0.00 | 0.00 | 0.00 | 81 | 1005.4 |
| 20260505113002 | 19 | 167 | 1.6 | 4.8 | 0.00 | 0.00 | 0.00 | 81 | 1005.2 |
| 20260505111550 | 19 | 175 | 1.6 | 6.4 | 0.00 | 0.00 | 0.00 | 80 | 1005.2 |
| 20260505101504 | 20 | 159 | 1.6 | 6.4 | 0.00 | 0.00 | 0.00 | 78 | 1005.2 |
| 20260505100001 | 20 | 153 | 1.6 | 8.0 | 0.00 | 0.00 | 0.00 | 78 | 1005.2 |
| 20260505094501 | 20 | 148 | 1.6 | 9.7 | 0.00 | 0.00 | 0.00 | 77 | 1005.1 |
| 20260505093002 | 20 | 188 | 1.6 | 6.4 | 0.00 | 0.00 | 0.00 | 77 | 1004.9 |
| 20260505091500 | 20 | 198 | 0.0 | 8.0 | 0.00 | 0.00 | 0.00 | 76 | 1005.2 |
| 20260505090001 | 20 | 140 | 1.6 | 6.4 | 0.00 | 0.00 | 0.00 | 76 | 1005.2 |
| 20260505084510 | 21 | 219 | 1.6 | 4.8 | 0.00 | 0.00 | 0.00 | 75 | 1005.2 |
| 20260505083000 | 21 | 167 | 3.2 | 8.0 | 0.00 | 0.00 | 0.00 | 75 | 1005.4 |
| 20260505081502 | 21 | 231 | 1.6 | 6.4 | 0.00 | 0.00 | 0.00 | 74 | 1005.6 |
| 20260505080012 | 21 | 188 | 1.6 | 4.8 | 0.00 | 0.00 | 0.00 | 74 | 1005.7 |
| 20260505074504 | 21 | 212 | 0.0 | 4.8 | 0.00 | 0.00 | 0.00 | 73 | 1005.8 |
| 20260505073004 | 21 | 210 | 3.2 | 4.8 | 0.00 | 0.00 | 0.00 | 73 | 1006.0 |
| 20260505071502 | 21 | 256 | 0.0 | 6.4 | 0.00 | 0.00 | 0.00 | 72 | 1006.1 |
| 20260505070005 | 22 | 180 | 3.2 | 6.4 | 0.00 | 0.00 | 0.00 | 71 | 1006.1 |
| 20260505064504 | 22 | 172 | 1.6 | 6.4 | 0.00 | 0.00 | 0.00 | 70 | 1006.5 |
| 20260505063004 | 22 | 225 | 1.6 | 8.0 | 0.00 | 0.00 | 0.00 | 68 | 1006.5 |
| 20260505061505 | 23 | 125 | 3.2 | 6.4 | 0.00 | 0.00 | 0.00 | 67 | 1006.3 |
| 20260505060005 | 23 | 166 | 3.2 | 8.0 | 0.00 | 0.00 | 0.00 | 66 | 1006.4 |
| 20260505054505 | 23 | 157 | 3.2 | 8.0 | 0.00 | 0.00 | 0.00 | 64 | 1006.5 |
| 20260505053004 | 23 | 194 | 1.6 | 6.4 | 0.00 | 0.00 | 0.00 | 63 | 1006.5 |
| 20260505051505 | 23 | 235 | 3.2 | 6.4 | 0.00 | 0.00 | 0.00 | 62 | 1006.5 |
| 20260505041504 | 24 | 238 | 1.6 | 6.4 | 0.00 | 0.00 | 0.00 | 58 | 1006.3 |
| 20260505040011 | 25 | 133 | 3.2 | 8.0 | 0.00 | 0.00 | 0.00 | 57 | 1006.3 |
| 20260505034506 | 25 | 232 | 3.2 | 12.9 | 0.00 | 0.00 | 0.00 | 55 | 1006.1 |
| 20260505033008 | 25 | 145 | 3.2 | 9.7 | 0.00 | 0.00 | 0.00 | 54 | 1006.0 |
| 20260505031504 | 25 | 199 | 3.2 | 6.4 | 0.00 | 0.00 | 0.00 | 53 | 1005.9 |
| 20260505030008 | 26 | 231 | 3.2 | 8.0 | 0.00 | 0.00 | 0.00 | 52 | 1005.8 |
| 20260505024526 | 26 | 130 | 1.6 | 8.0 | 0.00 | 0.00 | 0.00 | 50 | 1005.6 |
| 20260505023006 | 26 | 188 | 3.2 | 9.7 | 0.00 | 0.00 | 0.00 | 49 | 1005.3 |
| 20260505021508 | 27 | 226 | 3.2 | 9.7 | 0.00 | 0.00 | 0.00 | 48 | 1005.2 |
| 20260505020010 | 27 | 247 | 3.2 | 9.7 | 0.00 | 0.00 | 0.00 | 47 | 1005.2 |
| 20260505014508 | 27 | 253 | 6.4 | 12.9 | 0.00 | 0.00 | 0.00 | 47 | 1005.2 |
| 20260505013017 | 28 | 172 | 4.8 | 12.9 | 0.00 | 0.00 | 0.00 | 46 | 1005.0 |
| 20260505011511 | 28 | 226 | 3.2 | 12.9 | 0.00 | 0.00 | 0.00 | 45 | 1005.0 |
| 20260505010009 | 28 | 167 | 3.2 | 8.0 | 0.00 | 0.00 | 0.00 | 44 | 1005.0 |
| 20260505004515 | 29 | 172 | 3.2 | 11.3 | 0.00 | 0.00 | 0.00 | 43 | 1004.8 |
| 20260505003014 | 30 | 165 | 3.2 | 11.3 | 0.00 | 0.00 | 0.00 | 41 | 1004.8 |
| 20260505001510 | 30 | 195 | 4.8 | 16.1 | 0.00 | 0.00 | 0.00 | 40 | 1004.8 |
| 20260505000027 | 30 | 167 | 4.8 | 9.7 | 0.00 | 0.00 | 0.00 | 40 | 1005.0 |